Retour au catalogue

COSMOS 1911

ActifMilitairePO
NORAD 18790·PAYLOAD·🇷🇺 Russia

Lancé Jan 15, 1988 depuis Plesetsk Cosmodrome

Loading…

Prochains Passages (prochaines 24 heures)

TLE

FraisSource: Space-Track

Époque: Sep 14, 2026, 05:44 UTC

1 18790U 88002C   26257.23907862  .00000019  00000-0  45342-4 0  9994
2 18790  82.6119 191.7259 0006336 297.5244 239.8542 12.64386242784201

Suivez COSMOS 1911 en temps réel avec AllMySat

Download on the App Store